View from above orbital plane
|
View from above satellite
|
Ground track
|
The orbit data is extracted from the following two-line orbital elements,
1 28095U 03054A 21056.05188139 0.00000000 00000-0 00000-0 0 08
2 28095 63.4186 104.7516 0428988 359.5983 0.4017 13.41399645 06
Epoch (UTC): | 25 February 2021 01:14:42 |
Eccentricity: | 0.0428988 |
inclination: | 63.4186° |
perigee height: | 783 km |
apogee height: | 1425 km |
right ascension of ascending node: | 104.7516° |
argument of perigee: | 359.5983° |
revolutions per day: | 13.41399645 |
mean anomaly at epoch: | 0.4017° |
orbit number at epoch: | 0 |
The dashed part of the orbit path shows where the satellite is in the earth's shadow,
|
|